Location: Sigmaringen
(48.0852°N, 9.2158°E)
Time: 10:03:24
(UTC+01:00)

ISS - Visible Passes

Search period start: 10 December 2025 00:00
Search period end: 20 December 2025 00:00
Orbit: 416 x 420 km, 51.6° (Epoch: 09 December)

Date Brightness Start Highest point End Pass type
(mag) Time Alt. Az. Time Alt. Az. Time Alt. Az.
11 Dec -0.5 07:14:02 10° S 07:16:10 16° SE 07:18:18 10° E visible
13 Dec -1.9 07:13:39 10° SSW 07:16:45 35° SE 07:19:52 10° ENE visible
14 Dec -1.3 06:26:10 10° SSW 06:28:54 23° SE 06:31:39 10° E visible
15 Dec -0.8 05:39:01 10° S 05:41:05 15° SE 05:43:09 10° E visible
15 Dec -3.5 07:14:02 10° WSW 07:17:24 75° SSE 07:20:47 10° ENE visible
16 Dec -3.0 06:26:43 14° SW 06:29:24 51° SSE 06:32:42 10° ENE visible
17 Dec -2.3 05:41:18 34° SSE 05:41:26 34° SE 05:44:32 10° ENE visible
17 Dec -3.7 07:14:45 10° W 07:18:06 62° NNW 07:21:28 10° ENE visible
18 Dec -0.4 04:55:38 13° E 04:55:38 13° E 04:56:12 10° E visible
18 Dec -3.9 06:28:35 33° WSW 06:29:58 81° NNW 06:33:22 10° ENE visible
19 Dec -2.8 05:42:43 46° E 05:42:43 46° E 05:45:14 10° ENE visible
19 Dec -3.3 07:15:39 11° W 07:18:48 46° N 07:22:04 10° ENE visible
